Find Kosmos-1883

NORAD ID: 18355 Int'l Des: 1987-079 Owner: UNKS Country: SU Constellation: GLONASS operational
MEOCIRCULAR

リアルタイム位置

3D地球を読み込み中...

Kosmos-1883について

説明を読み込み中...

次回通過

Passes for default location (London). Set your location on the main map for personalized predictions.

高度履歴

Loading altitude history...

軌道要素

1 18355U 87079A 26102.00860360 -.00000011 00000-0 00000+0 0 9999
2 18355 65.6360 320.9647 0007878 257.4681 282.4442 2.13101080300122
Epoch: Apr 12, 2026 • Age: 78 hours

現在のステータス

高度 19131.1 km
速度 3.95 km/s
衛星直下点 14.58°N, 167.53°W
打ち上げ日 Sep 16, 1987
運用期間 38.5 years
タイプ other

技術仕様

分類 Payload
質量 1300.00 kg
乾燥質量 1200.00 kg
総質量 1300.00 kg
長さ 4.00 m
直径 1.50 m
スパン 7.80 m
形状 Cyl + Ant + 2 Pan
製造者 OAZ
バスタイプ Uragan
フェーズステータス In Orbit
所有者/国 UNKS/SU

Most Searched